JA1CAY-13 Weather Reports


time (UTC)temp
F
wind
direction
speed
knots
gust
knots
rain 1hr
in
rain 24hr
in
rain mn
in
humidity
%
barometer
mb
20260504150325 59 352 14.8 24.3 0.00 0.52 0.00 45 1009.0
20260504130625 62 359 14.8 27.8 0.00 0.55 0.52 40 1006.1
20260504081825 72 355 12.2 24.3 0.00 0.57 0.52 40 998.7
20260504080924 73 349 12.2 24.3 0.00 0.57 0.52 39 998.3
20260504050025 84 213 5.2 13.0 0.00 0.57 0.52 22 994.6
20260504045124 85 210 7.0 13.0 0.00 0.57 0.52 23 994.5
20260504044225 85 214 7.0 14.8 0.00 0.57 0.52 22 994.5
20260504042425 85 220 5.2 13.9 0.00 0.57 0.52 25 994.4
20260504041525 85 213 5.2 13.0 0.00 0.57 0.52 24 994.6
20260504040624 85 210 4.3 12.2 0.00 0.57 0.52 23 994.4
20260504035725 85 200 4.3 13.0 0.00 0.57 0.52 23 994.2
20260504034825 86 213 3.5 13.0 0.00 0.57 0.52 24 994.3
20260504033924 85 214 1.7 7.0 0.00 0.57 0.52 26 994.2
20260504033025 85 212 2.6 10.4 0.00 0.57 0.52 27 994.4
20260504031225 85 217 4.3 16.5 0.00 0.57 0.52 32 994.8
20260504025424 85 200 4.3 15.6 0.00 0.57 0.52 33 994.9
20260504024525 85 319 1.7 7.0 0.00 0.57 0.52 46 995.0
20260504023624 84 339 1.7 6.1 0.00 0.57 0.52 54 995.3
20260504022725 83 18 2.6 7.0 0.00 0.57 0.52 53 995.5
20260504021824 82 342 5.2 10.4 0.00 0.57 0.52 58 995.6
20260504020925 81 301 2.6 7.0 0.00 0.57 0.52 60 995.9
20260504020025 80 291 0.0 5.2 0.00 0.57 0.52 58 995.9
20260504015124 80 315 1.7 6.1 0.00 0.57 0.52 63 996.1
20260504014225 79 73 0.9 3.5 0.00 0.57 0.52 68 996.0
20260504013325 78 44 0.9 7.0 0.00 0.57 0.52 66 996.1
20260504012424 77 292 1.7 6.1 0.00 0.57 0.52 71 996.5
20260504011525 76 280 0.9 4.3 0.00 0.57 0.52 75 996.8
20260504010624 75 347 0.9 5.2 0.00 0.57 0.52 81 996.7
20260504005725 73 315 0.9 5.2 0.00 0.57 0.52 84 996.6
20260504004825 71 153 0.0 1.7 0.00 0.57 0.52 86 996.8
20260504003924 70 204 0.0 4.3 0.00 0.57 0.52 86 996.9
20260504003025 69 206 0.0 3.5 0.00 0.57 0.52 88 997.4
20260504001225 68 123 0.0 2.6 0.00 0.57 0.52 91 997.6
20260503235425 66 0 0.0 0.0 0.00 0.57 0.52 92 997.6
20260503234524 65 175 0.9 3.5 0.00 0.57 0.52 92 997.9
20260503233624 65 210 0.0 2.6 0.00 0.57 0.52 92 997.9
20260503232724 65 0 0.0 0.0 0.00 0.57 0.52 92 997.7
20260503231824 64 0 0.0 0.0 0.01 0.57 0.52 92 998.0
20260503230925 64 113 0.0 0.9 0.01 0.57 0.52 92 997.9
20260503230025 64 0 0.0 0.0 0.01 0.57 0.52 92 997.6
20260503225125 63 0 0.0 0.0 0.01 0.57 0.52 92 997.6
20260503224224 63 112 0.0 2.6 0.01 0.57 0.52 92 997.6
20260503223324 63 93 0.0 1.7 0.03 0.57 0.52 92 997.5
20260503221525 62 0 0.0 0.0 0.02 0.56 0.51 92 997.3
20260503220625 62 0 0.0 0.0 0.02 0.56 0.51 92 997.3
20260503215724 62 0 0.0 0.0 0.02 0.56 0.51 92 997.1
20260503214825 62 0 0.0 0.0 0.03 0.56 0.51 92 997.3
20260503213925 62 0 0.0 0.0 0.02 0.55 0.50 92 997.1
20260503213025 62 0 0.0 0.0 0.01 0.54 0.49 92 997.1
20260503212125 62 0 0.0 0.0 0.01 0.54 0.49 92 997.1
20260503211224 62 0 0.0 0.0 0.01 0.54 0.49 92 996.6
20260503210324 62 0 0.0 0.0 0.02 0.54 0.49 92 996.8
20260503205424 62 0 0.0 0.0 0.01 0.53 0.48 92 996.8
20260503203625 62 120 0.0 2.6 0.03 0.53 0.48 92 996.7
20260503202724 61 312 0.9 3.5 0.03 0.53 0.48 92 996.6
20260503201824 61 293 1.7 6.1 0.04 0.53 0.48 92 997.0
20260503200925 61 279 0.0 2.6 0.05 0.52 0.47 92 996.8
20260503200025 61 298 0.9 4.3 0.07 0.52 0.47 92 996.7
20260503195126 61 292 0.0 3.5 0.09 0.52 0.47 92 996.8
20260503194225 61 276 0.0 3.5 0.11 0.51 0.46 92 996.9
20260503193325 61 277 0.0 3.5 0.12 0.50 0.45 92 997.2
20260503192425 61 277 0.0 1.7 0.15 0.49 0.44 92 997.1
20260503191525 61 0 0.0 0.0 0.18 0.48 0.43 92 997.4
20260503190625 61 0 0.0 0.0 0.19 0.46 0.41 92 997.7
20260503185725 61 0 0.0 0.0 0.18 0.44 0.39 92 998.0
20260503184825 61 128 0.0 2.6 0.18 0.41 0.36 92 997.9
20260503183024 61 0 0.0 0.0 0.19 0.36 0.32 92 998.5
20260503182125 61 0 0.0 0.0 0.17 0.33 0.28 92 998.8
20260503181225 61 0 0.0 0.0 0.14 0.28 0.23 92 998.7
20260503180324 61 0 0.0 0.0 0.15 0.27 0.22 92 999.2
20260503175424 61 0 0.0 0.0 0.14 0.25 0.20 92 999.4
20260503174525 61 292 0.0 0.9 0.12 0.21 0.16 92 999.7
20260503173624 61 301 0.0 1.7 0.11 0.18 0.13 92 999.9
20260503172725 61 301 0.0 1.7 0.10 0.17 0.12 92 999.7
20260503171824 61 328 1.7 5.2 0.08 0.15 0.10 92 999.7
20260503170925 61 308 1.7 5.2 0.07 0.13 0.08 92 1000.1